[Date Prev][Date Next][Thread Prev][Thread Next] - [Date Index][Thread Index][Author Index]
2 Line ISS Keps 1-25
- Subject: [sarex] 2 Line ISS Keps 1-25
- From: "Dave Larsen Ph.D." <doc@xxxxxxxxxxx>
- Date: Sat, 25 Jan 2003 06:42:59 -0800
ISS
1 25544U 98067A 03025.50267569 .00011499 00000-0 14720-3 0 6202
2 25544 51.6359 16.9696 0005341 74.9860 69.9655 15.59696946238749
----
Via the sarex mailing list at AMSAT.ORG courtesy of AMSAT-NA.
To unsubscribe, send "unsubscribe sarex" to Majordomo@amsat.org
AMSAT Home